RH
9 9 9 9 9 9 9 9 8 8 8 8 8 9 10 10 10 10 10 9 9 9 9 9 9 9 9 10 11 13 17 17 14 12 12 10 9 9 8 8 7 7 7 8 10 10 12 13 13 14 13 13 15 16 16 18 17 18 34 34 33 40 32 23 15 13 17 15 16 17 18 22 23 20 18 22 24 24 25 26 28 28 30 35 42 48 52 52
10 10 10 10 10 9 9 9 9 9 9 8 8 9 10 10 10 9 9 9 8 8 8 8 8 9 9 9 11 13 15 13 12 12 11 10 10 9 10 9 8 8 7 9 13 12 11 11 11 11 11 11 11 14 15 16 14 21 32 32 40 40 20 14 13 12 13 12 17 21 19 20 21 19 19 25 27 28 30 29 28 30 33 35 39 43 47 46
10 9 9 9 9 9 9 9 9 9 9 9 9 9 9 10 10 10 9 9 8 8 7 7 7 7 8 9 10 12 14 15 15 15 13 11 11 9 9 10 9 8 7 9 10 9 10 10 10 10 9 9 9 13 13 13 13 17 20 28 43 33 13 13 13 11 12 12 19 22 20 22 23 21 21 26 30 31 35 36 31 31 34 35 36 37 39 38
10 9 8 8 8 8 9 10 9 9 9 9 9 9 9 9 9 9 8 8 8 8 7 7 7 7 8 8 10 12 14 18 18 14 14 12 12 10 9 10 9 9 8 8 7 8 9 9 10 9 9 9 8 11 13 12 13 14 18 30 34 20 14 15 12 12 13 14 19 22 22 24 25 24 25 27 34 37 39 42 39 36 35 34 35 34 34 32
10 9 8 8 8 9 10 10 9 9 9 9 9 9 9 9 8 8 8 8 8 8 8 8 7 7 8 8 9 10 13 25 22 13 13 11 11 9 8 10 10 10 8 8 8 8 9 9 10 9 9 9 9 11 13 11 10 13 17 21 19 13 15 15 12 14 13 16 20 22 23 24 25 28 32 34 41 47 46 46 43 41 40 39 40 37 34 33
11 10 8 8 9 10 10 8 8 8 8 8 8 8 8 9 8 8 8 8 8 8 8 8 7 7 9 9 10 11 17 27 19 10 12 10 10 9 9 9 9 11 9 9 10 11 11 10 11 10 9 10 12 12 11 10 10 15 16 12 12 12 14 14 14 15 15 20 24 24 25 25 28 33 38 42 47 50 48 46 43 43 43 42 41 39 39 39
13 10 9 9 10 9 8 8 8 9 9 8 8 7 7 7 8 9 8 8 8 8 8 8 7 7 9 11 17 16 15 18 12 10 12 10 11 10 9 9 9 11 10 10 11 12 12 11 11 10 10 13 13 13 11 10 9 16 18 13 13 13 14 15 16 19 20 24 25 25 26 27 33 37 41 46 49 48 45 43 42 43 42 40 41 43 45 45
11 10 10 10 9 8 8 8 8 9 10 8 8 7 7 6 7 9 9 9 8 8 9 7 7 10 10 12 21 19 12 14 12 12 11 11 12 10 10 9 9 10 10 11 12 12 12 13 13 10 14 15 14 16 15 14 16 19 19 15 14 15 15 14 18 22 24 26 25 25 28 32 36 39 45 49 48 45 43 42 41 41 40 41 43 46 46 46
10 11 10 9 8 8 9 8 8 9 8 7 6 6 7 7 7 8 10 9 8 9 8 8 11 14 13 14 20 19 15 16 13 12 13 12 11 10 10 9 9 10 11 12 12 13 14 14 14 13 16 15 14 19 16 16 22 22 18 16 15 16 16 14 18 23 25 25 24 25 28 33 34 37 48 50 46 44 41 41 42 41 41 43 44 45 46 46
11 11 10 9 9 9 10 9 9 8 7 7 5 6 7 8 8 8 9 8 8 8 8 11 14 14 13 16 21 19 16 15 13 14 13 12 12 11 10 9 10 9 11 13 13 14 13 13 15 12 12 14 18 22 19 19 23 20 15 15 16 17 16 17 21 23 25 25 24 28 29 33 32 38 53 51 43 41 40 42 43 42 43 44 44 45 46 46
12 11 10 10 10 10 10 10 10 8 8 7 5 7 8 9 8 8 8 8 8 8 9 13 15 13 10 11 17 18 15 14 14 14 13 13 13 12 11 11 11 10 11 13 14 14 12 12 11 11 16 20 21 21 22 22 21 16 15 20 19 16 17 20 23 23 24 26 26 27 31 35 38 46 54 49 43 40 39 43 43 43 44 44 45 45 46 46
12 11 11 10 9 10 10 10 10 9 8 7 6 8 10 11 10 9 9 8 8 8 10 14 19 20 13 10 15 17 15 14 13 13 14 14 12 13 13 13 13 12 12 12 13 13 11 11 9 14 21 19 19 23 24 21 17 13 19 29 23 19 23 18 20 22 22 27 23 24 37 43 44 49 51 47 44 41 40 43 43 44 45 45 46 46 46 47
12 11 11 10 10 9 10 10 9 9 8 7 8 9 12 12 12 11 10 9 9 9 10 15 20 20 14 14 18 17 16 16 15 14 14 13 13 14 13 13 13 12 13 12 12 12 11 11 11 15 18 17 21 25 23 19 15 15 22 31 31 36 37 20 18 20 19 27 20 26 53 55 48 50 50 48 44 42 43 44 45 47 47 49 49 50 51 51
11 11 11 9 10 9 10 10 9 9 8 8 9 11 12 11 12 11 11 12 10 10 12 16 19 16 13 17 19 17 17 17 16 16 14 12 13 15 14 13 13 13 14 13 13 13 12 13 16 19 20 20 20 23 30 25 17 23 30 39 48 50 38 22 22 20 20 29 20 31 62 59 50 53 50 48 45 43 45 46 48 49 50 53 53 54 56 55
10 10 9 9 10 10 10 9 9 10 8 9 10 11 11 11 11 10 12 13 11 13 16 19 21 16 13 16 17 17 17 18 16 16 15 13 14 15 15 14 14 14 14 14 14 14 15 17 19 22 22 19 20 32 44 36 31 39 38 47 62 53 34 28 29 26 27 32 27 41 65 59 52 53 49 48 46 44 46 46 49 51 53 56 57 58 58 58
10 10 9 10 10 10 10 9 10 10 9 11 11 12 12 11 12 12 15 14 12 16 18 21 20 17 17 16 16 16 17 18 17 17 15 14 14 14 15 14 14 16 16 18 17 17 19 18 19 21 21 22 28 44 56 52 54 57 44 42 50 45 40 39 35 32 32 34 35 45 60 60 54 51 49 49 47 47 48 48 50 52 55 58 60 60 59 58
11 10 10 11 11 10 10 10 10 10 11 12 12 12 12 12 12 13 15 16 17 17 17 19 17 18 20 16 17 17 18 19 17 16 16 15 15 15 16 15 15 16 17 21 21 21 20 20 23 23 24 29 34 51 67 63 58 60 58 52 50 48 46 45 43 37 35 40 44 46 54 60 55 49 49 49 49 49 50 51 53 54 56 59 61 62 60 58
11 10 11 11 11 10 10 11 11 11 12 13 13 12 12 13 14 14 17 20 20 17 17 16 16 24 23 17 20 19 18 19 17 16 16 15 16 17 18 17 18 17 16 22 23 21 21 22 26 29 34 37 36 51 63 54 45 50 57 58 61 57 47 49 51 43 42 49 52 54 59 60 54 50 50 50 50 51 52 53 55 57 59 62 63 63 61 60
8 9 11 10 11 10 10 11 10 9 11 12 13 12 12 11 11 13 15 16 17 20 24 19 19 27 24 19 20 18 18 18 17 16 15 16 17 19 21 20 21 19 22 30 27 20 23 30 37 43 46 44 42 46 46 39 37 43 49 51 57 55 46 49 52 44 44 54 58 60 63 61 56 53 50 50 50 51 53 54 56 58 61 65 66 65 64 63
7 7 8 10 10 9 10 11 10 7 7 10 12 17 22 16 14 18 16 15 17 21 24 20 19 21 19 21 20 17 17 17 16 17 16 16 17 19 21 20 22 25 32 39 33 24 28 44 54 50 43 43 40 37 40 41 38 46 56 57 55 51 43 43 49 48 48 60 65 60 63 64 60 57 51 50 52 52 53 54 56 58 60 64 66 66 65 65
7 7 8 9 8 9 10 11 9 6 6 8 9 19 29 24 21 25 23 22 21 19 19 18 19 19 19 22 22 18 17 16 15 16 19 19 19 22 22 23 30 35 37 35 31 27 32 49 54 42 36 41 38 37 49 52 45 49 53 54 55 48 40 39 48 51 48 63 70 63 68 70 64 61 54 50 52 53 55 55 56 58 60 63 64 65 65 65
9 8 9 8 9 9 10 10 9 6 5 7 8 14 23 22 20 22 23 24 22 19 20 19 18 20 20 21 22 21 19 20 18 16 20 20 21 25 24 27 36 39 37 36 37 38 43 50 45 34 34 39 37 40 53 53 48 48 47 55 61 52 48 50 52 50 48 64 73 67 73 73 64 61 55 53 54 53 53 55 56 58 60 62 64 65 64 65
9 9 9 8 9 8 9 10 8 7 6 6 8 12 17 18 17 19 22 27 29 23 20 20 20 21 21 21 23 22 21 25 26 22 22 22 23 27 28 31 37 37 36 43 45 46 50 46 38 34 32 34 35 41 55 56 49 47 45 51 53 48 52 56 57 57 55 62 69 71 77 75 66 63 59 54 54 54 53 55 56 57 60 60 63 64 64 65
9 9 8 7 8 7 9 9 7 9 7 6 11 15 18 18 19 24 23 27 34 28 24 21 20 24 24 22 22 23 24 25 28 26 23 26 27 27 30 33 39 43 42 44 44 46 49 41 35 36 34 35 36 41 57 62 57 54 52 49 46 49 52 52 57 61 61 62 64 73 80 80 76 71 68 60 54 56 54 54 56 56 59 61 62 65 65 67
8 8 7 7 8 6 9 11 9 8 7 8 12 17 20 18 24 30 27 35 36 26 28 23 18 24 23 23 24 21 23 24 28 28 23 26 30 32 34 31 39 53 51 45 43 46 46 37 36 40 43 47 43 42 52 61 65 58 49 46 44 47 53 57 60 59 66 69 66 64 57 66 83 79 73 68 62 62 57 55 58 56 58 60 61 64 65 67
8 8 7 7 8 6 12 17 11 8 12 11 9 17 20 18 28 27 29 58 53 26 28 26 22 27 24 24 23 20 28 29 27 27 23 26 29 32 39 37 40 51 49 43 43 45 44 40 42 46 52 57 52 45 45 56 65 51 36 40 42 44 52 61 62 62 70 69 64 56 32 41 78 83 74 72 69 68 63 59 59 57 58 59 60 63 64 67
8 8 8 8 8 7 11 16 10 8 14 12 8 16 16 19 27 17 30 69 55 23 28 28 22 27 27 27 24 26 38 35 28 27 23 27 27 26 42 51 48 48 44 40 43 44 45 48 49 50 56 60 54 47 45 51 54 40 30 37 43 43 48 54 59 67 68 57 55 54 32 30 63 80 74 73 74 73 70 67 63 58 58 60 61 63 66 69
8 8 9 8 7 8 8 11 10 9 12 11 12 12 12 20 21 16 40 57 31 20 32 28 22 25 25 27 26 30 35 33 36 33 21 24 27 23 41 53 49 51 46 37 44 45 43 52 51 47 49 50 46 43 48 49 46 46 41 43 48 45 48 55 58 65 62 50 49 51 39 32 55 80 78 72 79 79 74 72 66 59 57 58 60 62 65 68
8 7 8 7 7 8 7 8 9 9 11 11 14 11 12 17 14 26 50 39 21 32 36 27 26 26 24 26 28 29 30 32 37 33 21 24 29 27 41 45 37 46 43 33 47 48 38 42 43 42 43 42 40 40 46 46 43 49 44 45 61 62 61 60 56 59 56 50 51 45 39 36 49 80 87 79 84 81 73 71 66 59 56 56 58 60 63 66
8 7 6 6 7 6 8 10 7 9 11 11 15 15 13 15 28 53 50 27 31 41 32 28 29 29 33 39 39 35 33 33 32 29 24 24 27 27 35 37 34 50 56 47 54 51 43 44 39 38 38 33 33 31 36 41 37 37 36 46 64 66 62 59 59 59 46 48 56 40 34 35 40 69 85 80 81 76 72 72 68 61 56 56 58 59 62 66
8 7 6 7 7 5 8 9 6 8 10 12 17 16 18 30 54 65 37 19 38 43 33 37 39 38 45 47 44 41 41 37 31 35 38 35 35 35 39 44 49 63 69 65 62 54 54 56 43 35 30 28 34 28 27 41 40 31 33 39 42 42 47 53 67 66 43 46 56 35 29 34 36 57 70 68 73 73 72 74 71 66 60 56 58 60 63 65
9 9 9 9 7 7 8 7 8 8 9 18 19 17 35 49 50 48 37 32 41 42 39 42 45 48 53 53 48 47 50 45 37 41 50 53 55 56 56 58 63 62 57 63 65 58 57 56 46 39 30 28 39 39 35 44 47 37 34 42 49 51 52 51 61 60 38 39 44 27 27 35 34 49 64 68 73 71 66 65 64 62 60 58 59 60 63 66
11 10 10 9 8 8 7 6 8 7 10 19 15 22 53 59 37 33 47 47 39 40 42 44 54 57 56 58 52 50 54 47 41 42 47 57 65 67 63 59 62 56 50 56 58 56 59 54 52 50 37 30 39 45 38 33 40 43 36 45 63 64 55 52 54 51 39 39 37 26 33 45 40 48 67 73 68 62 57 57 58 58 57 58 60 61 64 67
11 11 12 11 10 11 12 13 11 9 13 16 24 42 54 46 35 37 48 52 46 49 50 52 60 57 53 52 46 50 54 45 45 48 48 56 66 72 70 61 57 56 60 58 47 50 52 40 42 47 36 34 42 42 38 36 45 53 43 42 59 60 55 58 54 48 51 52 44 35 43 54 48 52 68 66 58 57 56 57 58 58 59 60 62 64 66 68
12 13 13 14 16 15 17 20 17 20 21 16 36 64 55 36 40 47 53 60 57 54 57 60 61 55 51 49 46 49 47 41 51 59 58 60 65 69 69 62 58 59 65 58 41 45 47 35 38 41 31 35 43 37 39 44 39 41 41 39 49 53 56 68 64 53 55 61 64 56 49 54 56 65 74 63 57 60 56 58 60 59 62 62 63 65 64 65
14 14 14 16 19 19 21 21 20 28 25 17 36 63 58 45 50 56 58 59 57 58 62 61 57 56 54 50 51 52 44 40 50 61 63 63 65 66 65 61 55 56 63 61 51 47 47 46 46 42 34 35 40 34 34 32 21 27 35 30 38 46 53 67 69 61 54 51 56 43 29 42 48 56 74 70 65 69 63 62 63 60 62 63 63 63 61 63
15 16 18 17 18 20 24 21 21 23 15 21 47 59 55 54 59 70 69 57 59 65 62 52 45 49 53 49 50 52 49 46 46 54 59 58 57 58 64 63 51 51 58 60 60 54 51 56 54 48 43 36 36 35 31 25 21 32 37 29 36 46 54 58 55 64 64 50 47 35 26 40 36 37 70 82 76 75 73 70 67 63 64 65 64 62 63 66
15 16 17 19 20 19 19 19 19 14 8 34 69 65 61 66 60 63 67 60 65 66 60 55 46 44 50 51 50 51 53 55 53 55 54 53 55 55 63 65 51 49 55 57 64 61 56 55 48 44 44 40 42 42 40 34 28 32 33 31 35 40 54 59 48 56 59 48 57 54 42 46 44 52 75 80 76 75 73 73 73 71 68 64 63 62 64 69
18 16 15 18 21 16 18 20 12 6 16 54 80 67 65 74 58 50 58 61 67 64 56 55 49 47 53 53 52 54 52 50 52 55 51 52 58 55 55 58 53 50 53 57 58 54 54 52 43 40 39 42 48 43 44 43 35 36 38 39 47 51 59 59 50 56 56 55 68 64 52 48 50 69 77 67 69 73 69 73 74 68 61 57 58 58 62 68
21 19 15 16 19 16 14 13 9 22 46 67 78 69 64 67 55 48 54 57 61 58 53 56 54 54 56 53 53 55 51 47 51 57 57 58 60 60 58 61 68 66 57 54 53 54 60 51 45 51 43 38 45 42 45 47 43 49 54 50 52 57 56 45 46 62 63 67 71 61 56 47 38 59 69 58 66 70 66 71 67 55 50 52 54 55 58 60
20 22 19 12 17 15 8 13 24 50 72 72 70 70 63 60 55 50 52 53 53 49 48 55 58 56 56 56 55 54 53 54 56 57 59 59 58 63 67 69 77 76 63 57 56 58 59 45 45 59 49 43 51 47 43 46 46 50 55 56 57 68 65 43 49 72 67 65 68 59 55 42 32 53 60 56 68 68 60 62 58 50 48 53 55 53 55 54
19 29 24 13 17 11 10 34 49 58 74 73 65 62 58 55 51 46 48 48 47 44 43 49 57 60 60 59 55 56 58 59 60 59 59 62 61 60 64 66 70 72 67 63 55 50 55 53 51 55 48 45 50 47 41 45 49 46 44 46 57 77 75 50 58 80 70 60 63 66 66 48 40 58 59 57 63 57 51 53 53 52 51 53 55 52 54 55
20 28 22 16 19 6 11 49 65 64 70 65 55 54 53 52 50 49 49 48 48 46 44 50 56 56 56 55 54 58 58 55 57 57 58 66 65 56 58 60 59 62 69 71 64 55 54 52 48 57 63 57 53 51 46 42 47 53 51 44 49 73 81 73 78 80 71 67 58 61 72 55 47 60 56 52 55 49 49 53 52 54 53 53 55 52 51 50
16 19 17 18 17 7 22 54 66 66 63 53 53 57 50 46 52 61 59 53 53 51 50 56 54 48 49 51 53 56 54 52 55 54 56 64 63 55 56 57 54 58 65 67 63 55 50 42 40 53 60 54 58 63 57 52 52 55 58 52 57 77 80 78 81 73 73 76 57 58 71 54 51 66 59 55 62 59 55 53 53 57 55 53 53 49 45 44
14 14 12 14 10 9 28 45 50 62 64 60 63 62 54 48 47 57 58 48 46 48 48 49 46 46 50 51 53 55 52 51 51 50 54 59 61 62 60 54 50 50 50 51 50 52 59 53 39 43 43 33 37 43 42 53 57 53 55 55 61 75 70 65 77 80 83 80 64 68 67 40 40 64 66 67 76 73 63 55 53 54 51 50 47 43 43 44
19 25 24 21 14 16 29 29 33 52 62 67 65 54 57 60 49 50 53 45 43 44 42 42 43 48 52 52 55 55 52 54 52 53 60 61 60 62 57 53 52 46 42 43 44 53 72 66 43 46 53 40 30 28 28 39 42 38 49 57 63 74 71 70 81 84 84 82 72 66 56 37 37 47 52 62 71 71 64 51 45 46 45 44 43 41 44 46
23 39 42 34 23 28 40 36 33 41 45 55 59 47 51 62 55 52 50 41 41 43 43 46 48 51 54 55 56 54 53 55 52 53 61 63 62 57 48 51 55 47 43 43 42 52 67 65 50 48 50 41 33 28 27 33 33 30 39 52 65 79 76 71 74 71 69 72 63 50 48 51 45 33 34 45 52 57 56 46 41 42 41 41 42 44 47 47
27 38 40 34 31 42 54 44 34 37 39 47 55 49 52 59 54 55 53 41 41 45 47 53 54 54 56 57 60 60 55 52 53 57 59 59 61 57 50 53 52 45 43 42 41 45 49 55 59 55 49 47 42 36 34 38 38 36 39 44 58 79 83 72 66 63 60 61 52 40 44 51 43 35 37 42 45 48 48 43 41 40 40 43 45 47 50 51
27 31 29 29 32 41 50 40 28 34 41 48 56 55 57 58 50 53 57 52 51 48 46 55 59 57 57 58 62 62 55 49 52 61 67 63 60 62 62 61 52 44 44 46 45 42 42 58 71 65 60 57 45 40 45 48 46 44 44 42 46 66 82 76 67 62 61 63 57 48 53 56 46 44 47 44 43 44 41 39 40 41 43 46 49 52 54 55
22 21 19 26 31 33 38 36 34 45 49 49 51 48 52 61 57 56 59 57 58 56 52 59 63 59 57 58 59 60 59 58 56 59 67 62 58 65 67 60 54 47 44 52 62 51 36 52 75 70 66 66 53 44 46 47 49 46 39 37 39 49 66 72 70 67 67 70 65 61 71 69 51 43 46 41 38 39 38 38 40 43 47 50 53 56 56 57
15 13 11 22 33 33 31 28 37 58 62 54 52 47 51 63 59 55 59 55 55 60 62 66 66 63 60 55 59 66 64 63 63 61 59 55 52 57 55 50 52 53 52 63 79 68 42 50 71 63 54 59 50 39 40 41 42 44 40 38 37 39 51 59 57 57 57 57 59 65 71 61 43 37 40 38 36 38 39 39 42 48 51 55 58 58 58 59
10 12 10 18 32 33 29 33 44 55 51 48 54 53 55 59 52 49 54 51 49 50 51 56 60 64 65 58 62 69 60 55 62 61 56 53 51 50 49 48 47 54 68 79 86 86 69 61 66 56 52 63 51 36 43 43 38 48 54 46 36 35 44 49 48 48 47 46 52 59 52 38 33 38 41 39 38 41 41 42 47 52 53 56 59 59 58 57
Wind_Speed
6 6 6 7 7 7 7 6 6 4 4 3 2 2 2 2 1 1 2 3 3 3 4 4 4 5 5 4 6 11 10 7 5 3 2 3 4 3 5 4 3 2 2 3 4 5 6 5 5 4 6 7 8 9 7 7 6 3 2 3 2 2 2 2 1 2 5 4 8 16 20 16 7 11 19 23 31 31 32 30 25 25 23 21 20 19 18 15
7 7 7 7 7 7 7 6 5 4 4 3 2 2 2 1 1 1 2 3 3 3 3 4 5 5 4 3 7 11 9 7 5 4 5 5 5 5 6 5 4 3 2 4 5 5 6 5 2 4 9 9 8 8 6 7 8 4 3 2 4 3 2 4 5 6 6 7 14 21 27 26 12 10 18 17 23 31 28 24 22 24 22 20 17 16 14 12
7 7 7 7 7 7 7 6 5 4 3 3 3 2 2 2 3 3 4 3 3 3 3 4 5 5 5 2 7 10 8 6 2 4 7 7 6 7 6 6 5 4 2 4 5 5 5 4 1 1 6 7 8 10 7 5 6 6 5 1 5 5 5 10 12 11 10 14 18 18 29 34 24 19 17 16 23 29 22 20 21 22 22 23 20 18 17 17
7 6 6 7 7 8 7 7 6 5 4 4 4 3 3 3 3 4 4 4 3 3 3 4 5 5 5 2 5 8 7 3 3 6 8 8 7 7 6 6 5 4 3 3 3 3 4 5 2 2 3 4 6 9 8 7 6 5 6 4 5 5 7 10 13 15 17 23 21 18 27 28 30 31 21 20 20 17 19 23 25 24 26 27 26 24 22 23
6 5 6 6 7 8 8 8 7 6 6 6 5 5 4 4 4 4 4 3 3 2 3 4 4 4 4 2 3 6 6 1 4 6 7 7 6 6 6 5 4 4 3 2 2 1 1 1 1 2 3 4 4 4 7 12 9 3 5 4 2 5 7 7 15 19 20 27 25 22 21 16 24 34 32 31 18 10 19 25 29 29 28 29 28 26 25 26
5 4 5 6 7 8 8 8 8 8 7 7 6 6 5 4 3 3 3 2 2 2 2 3 2 2 2 2 4 3 4 1 3 5 6 7 6 6 5 5 4 3 2 1 2 2 3 3 2 4 3 3 4 4 6 13 12 3 2 3 10 13 9 8 20 24 25 31 25 21 21 24 30 26 31 38 23 18 24 25 30 30 28 28 26 26 26 27
4 5 5 6 7 8 9 10 10 9 8 8 7 6 5 5 3 3 2 1 1 1 2 2 2 2 1 3 7 5 5 4 6 7 7 9 8 7 5 4 4 3 2 2 1 3 3 4 4 5 4 2 3 5 5 7 10 5 1 5 15 19 16 17 28 32 36 35 27 28 28 29 29 19 26 34 25 24 25 24 27 26 26 25 25 28 27 27
5 6 6 7 8 9 10 11 11 11 9 9 9 8 6 5 4 3 2 1 1 1 2 2 3 4 2 3 6 6 8 10 10 10 10 10 8 8 6 4 3 2 1 2 4 5 3 5 7 4 1 0 4 5 2 4 4 4 2 4 12 18 20 26 34 36 36 32 33 39 31 28 31 27 28 26 23 23 21 21 22 21 23 24 26 27 26 26
7 7 7 8 9 10 10 11 12 11 10 10 10 9 8 6 4 3 1 1 2 2 3 5 6 6 4 2 4 4 9 13 11 11 10 9 7 8 6 4 3 2 1 3 5 5 4 5 6 6 3 2 7 7 4 4 3 3 6 8 12 15 19 26 30 30 28 28 37 34 22 22 22 21 24 21 21 19 17 20 20 20 23 25 26 25 24 24
8 8 8 9 9 10 10 11 11 11 11 10 10 10 8 6 5 3 2 2 3 3 5 9 9 10 7 4 6 5 9 12 11 10 9 8 8 7 5 4 3 2 2 2 2 4 4 5 5 5 4 4 7 6 4 3 2 3 8 11 14 16 18 26 29 32 31 29 40 32 17 21 17 12 13 16 19 14 17 23 21 22 25 25 24 23 22 21
9 9 9 9 9 10 11 11 11 11 10 10 10 10 8 6 5 4 4 4 4 4 7 10 11 13 11 10 13 8 11 14 13 11 11 11 9 6 5 5 4 3 3 2 0 4 4 4 4 3 2 3 6 5 4 4 3 4 8 10 14 19 20 26 27 28 26 22 38 38 22 24 22 17 13 15 19 14 20 24 22 25 25 24 22 21 21 19
8 8 8 9 9 10 11 12 11 11 10 10 10 10 8 6 6 6 6 5 6 7 10 10 9 9 9 15 17 12 14 18 16 14 13 13 10 6 5 5 4 3 2 1 1 4 4 3 2 3 2 2 3 2 2 3 3 3 8 7 8 13 11 13 14 18 17 14 23 27 16 16 15 14 16 18 19 18 23 24 23 25 23 23 22 21 22 20
7 7 7 8 9 10 11 12 11 11 11 10 9 9 7 6 6 5 5 6 7 8 10 10 7 5 7 14 15 14 17 19 19 17 14 11 9 6 6 5 5 4 3 3 2 3 4 3 2 4 5 4 1 2 2 3 3 1 5 7 4 7 5 7 7 16 13 9 10 8 6 7 9 13 18 16 17 20 23 23 22 23 22 23 23 23 24 22
5 6 6 7 9 10 11 11 11 12 12 12 10 8 6 5 5 5 5 7 8 9 10 9 6 5 8 12 12 15 17 18 21 20 16 11 7 6 7 7 7 6 6 5 5 5 4 5 8 8 8 9 4 3 4 2 3 1 2 4 3 4 1 8 8 7 7 4 7 11 6 3 6 12 16 15 16 20 22 20 19 20 21 22 23 24 25 24
4 5 6 7 8 9 10 10 11 12 13 12 10 9 8 8 8 9 10 10 10 12 11 8 5 7 10 10 9 14 16 17 21 21 17 13 9 6 7 7 8 9 9 9 8 8 7 9 16 14 10 13 8 3 3 3 3 3 3 2 3 4 3 6 15 7 7 8 13 15 7 2 6 10 15 16 16 20 21 17 17 18 18 20 21 22 23 22
4 5 6 7 9 9 10 10 9 11 12 12 10 11 13 14 15 15 15 13 13 11 9 6 4 6 9 7 7 13 16 16 20 21 15 12 10 8 6 7 11 11 11 12 11 10 10 11 17 19 17 14 8 3 4 4 4 4 3 2 3 4 3 2 14 16 9 7 15 11 8 4 5 11 15 14 16 20 20 16 16 16 16 17 18 19 20 19
4 5 6 7 8 8 9 9 8 9 10 11 11 12 14 14 13 15 16 14 13 10 9 8 3 5 9 10 9 14 16 16 20 20 12 9 10 10 8 9 10 9 9 12 12 11 11 10 8 10 14 10 5 3 5 5 4 5 3 3 1 4 3 2 4 15 17 12 12 12 11 7 5 12 15 13 16 18 17 16 15 16 16 16 16 17 17 17
5 6 6 7 7 7 9 8 7 7 9 12 15 17 16 15 11 10 11 10 10 10 9 9 4 5 6 14 14 13 12 15 21 18 9 7 8 9 9 9 7 5 6 10 12 12 10 10 7 4 8 8 6 7 5 1 1 2 2 1 3 3 4 4 2 6 16 15 12 12 10 8 6 10 14 13 15 16 16 16 15 16 16 15 15 16 15 15
5 6 5 5 6 7 9 8 7 5 7 9 14 18 18 19 19 18 18 16 14 10 5 11 11 5 2 13 18 13 9 15 21 16 10 6 7 9 10 8 8 8 6 6 10 13 10 8 10 6 6 6 6 7 2 3 3 3 0 1 2 4 3 5 4 6 16 14 9 10 9 8 7 6 11 14 14 16 15 15 15 15 14 14 14 14 13 12
5 5 4 5 5 7 8 7 6 5 4 5 8 8 7 10 14 16 25 29 24 16 10 13 14 8 5 13 20 16 9 16 23 21 16 8 6 13 14 8 10 13 9 6 5 12 14 8 6 5 5 5 6 6 3 2 1 1 3 4 4 5 3 3 5 5 13 12 5 7 9 7 6 4 8 14 14 15 15 14 14 14 14 13 12 11 10 9
5 5 4 5 6 6 7 6 6 4 3 2 6 5 2 3 6 9 19 25 21 19 18 18 16 13 9 10 18 19 14 18 25 25 20 13 9 11 14 11 9 9 6 8 8 10 14 9 4 5 5 5 6 7 5 5 6 5 5 5 6 5 4 2 7 5 4 9 3 6 9 5 4 3 5 11 11 10 13 14 14 15 14 13 11 10 8 6
5 6 6 6 6 6 5 4 4 3 3 1 4 4 4 7 12 15 17 16 14 16 17 18 20 18 14 10 12 18 21 21 24 28 23 19 18 13 14 15 8 5 5 7 7 6 9 6 9 11 6 6 7 9 8 9 8 7 5 5 4 4 4 4 5 3 4 7 5 5 7 4 3 3 5 7 6 7 12 14 14 15 15 14 12 11 9 8
7 7 7 7 6 5 5 3 3 3 3 2 1 4 12 16 18 19 18 13 10 11 13 17 20 21 19 15 11 15 24 20 18 27 26 20 19 16 15 14 8 8 9 7 6 4 4 3 12 11 9 9 8 11 10 8 7 6 5 5 1 3 2 2 2 4 6 5 8 7 6 3 2 2 3 5 6 6 8 10 12 14 15 14 13 12 11 11
8 8 8 7 7 6 4 2 3 3 2 2 4 11 18 20 18 15 13 10 6 6 11 13 17 20 19 18 13 10 19 20 18 24 26 21 15 10 9 10 9 9 7 8 11 9 4 7 12 8 10 9 8 11 10 6 5 3 3 5 2 2 1 3 1 4 7 7 7 8 4 1 4 3 3 5 7 7 7 8 10 12 14 14 14 13 13 12
8 8 8 8 7 6 4 1 2 3 1 2 7 14 19 18 14 10 6 6 3 5 8 8 12 17 19 20 12 4 10 18 21 24 22 21 15 6 5 7 7 5 4 9 12 9 5 10 11 8 8 9 8 8 8 4 3 4 1 4 3 2 3 3 1 3 5 3 4 5 3 2 4 5 5 5 6 7 10 11 12 12 13 14 14 14 14 13
8 8 8 8 6 6 3 1 2 3 1 2 6 13 16 16 13 6 2 4 3 6 7 8 9 13 18 21 12 5 5 11 17 24 20 17 17 7 3 5 4 3 4 7 7 4 5 12 11 8 6 8 8 5 5 5 5 3 2 1 1 1 1 2 2 3 3 2 5 6 3 2 3 5 6 6 6 7 10 13 16 16 15 15 16 15 15 14
9 8 8 8 6 5 3 1 2 2 1 2 6 12 14 15 13 4 2 4 4 5 6 8 7 10 14 19 16 6 1 8 9 23 22 13 16 14 8 6 4 1 1 5 5 1 3 10 10 8 7 7 7 4 3 4 5 2 5 3 5 5 4 1 5 4 3 1 2 3 3 2 3 3 5 7 6 6 8 10 15 19 19 18 17 15 15 14
9 9 8 7 5 5 3 2 2 1 1 2 4 9 13 15 12 3 4 4 4 4 4 5 6 11 11 15 22 13 5 9 6 16 20 11 13 18 13 7 4 4 6 6 4 2 1 5 6 7 7 5 3 3 5 3 3 6 7 7 7 5 4 1 5 3 2 3 1 4 0 0 4 2 2 5 5 7 10 10 13 20 22 20 18 17 17 17
10 9 8 6 5 5 3 2 1 0 1 2 4 7 12 14 9 1 5 3 2 3 3 5 4 10 13 12 19 17 12 14 9 10 18 15 13 15 12 9 11 11 12 10 6 3 1 2 3 4 4 3 3 6 6 2 1 9 8 6 3 1 3 2 4 2 2 3 2 6 2 2 4 2 3 3 4 8 10 9 13 21 24 22 21 21 21 20
12 11 9 7 5 5 2 2 1 1 1 3 7 10 13 12 6 4 5 0 1 3 4 6 3 8 13 8 11 15 11 12 12 11 18 20 20 20 14 13 15 10 8 10 5 2 1 1 2 4 5 4 5 5 4 2 4 10 8 6 5 5 5 3 2 3 5 2 4 5 1 3 2 3 5 5 5 7 7 6 10 19 23 23 22 22 22 21
13 12 11 8 6 4 2 1 1 2 3 7 14 17 15 7 4 6 3 1 1 4 4 4 4 6 9 5 4 10 8 9 13 11 12 15 18 20 13 8 9 6 4 6 4 3 5 4 3 3 9 10 3 5 8 5 9 10 5 5 5 4 5 5 5 4 5 2 6 4 3 2 2 5 5 7 6 4 7 7 9 16 22 25 24 23 23 22
14 13 11 10 7 5 2 1 1 3 6 12 17 15 9 4 5 3 0 3 1 3 3 2 4 5 5 5 4 6 4 6 11 9 6 6 7 10 8 2 3 3 4 3 1 3 4 2 3 2 8 13 6 3 7 7 8 8 5 6 5 3 5 4 4 3 1 5 6 2 5 1 4 5 5 6 6 4 7 9 12 19 24 25 25 23 23 22
12 11 11 11 9 7 5 3 3 5 9 15 15 7 5 6 3 1 2 3 0 1 1 1 4 4 4 5 4 5 4 3 6 8 4 4 4 3 4 4 3 1 1 1 1 3 3 3 6 4 4 8 6 4 3 4 5 6 4 4 4 3 4 2 3 3 2 5 6 4 2 2 4 4 3 6 7 7 6 6 12 19 23 23 23 23 22 22
11 12 12 13 12 10 10 9 8 9 11 13 9 4 8 5 1 1 2 2 1 2 2 1 4 5 4 4 2 2 4 2 2 6 5 4 5 4 4 7 8 3 2 3 1 1 2 2 5 2 2 5 4 3 3 2 2 3 1 4 4 4 3 2 2 1 3 6 6 5 1 3 3 3 2 4 6 7 7 7 8 13 17 18 19 20 22 22
14 14 13 14 14 12 11 10 10 11 11 11 7 7 6 3 2 1 1 3 2 3 4 3 3 4 4 3 2 2 2 1 1 5 5 4 3 3 4 5 7 4 3 3 1 1 3 1 3 1 1 2 2 2 2 4 0 3 1 5 2 2 5 3 3 5 3 3 4 3 1 4 3 2 3 1 5 7 9 10 9 11 14 15 17 20 22 23
16 16 15 14 13 13 10 6 7 8 11 10 10 6 3 2 2 2 0 2 0 2 4 5 5 4 4 3 3 5 2 1 1 3 4 3 2 2 3 3 4 6 4 3 1 1 3 2 4 1 2 1 1 3 3 3 1 1 3 1 3 3 6 3 2 3 1 1 4 3 3 4 3 3 4 2 2 6 8 11 13 16 16 17 20 22 23 24
15 18 18 15 13 12 10 8 7 8 11 12 9 3 2 1 1 2 1 1 1 0 2 3 2 2 3 2 3 6 4 2 2 3 2 1 1 3 3 4 3 6 5 2 1 1 3 2 4 1 1 3 2 1 6 4 2 3 1 2 2 1 3 3 1 4 4 1 4 4 4 5 3 2 3 3 6 8 7 10 15 18 19 21 23 24 24 25
13 17 19 18 14 9 7 10 8 10 14 14 7 3 3 1 0 0 2 2 0 1 4 2 0 1 1 1 2 6 5 3 3 3 2 1 1 2 2 3 3 6 9 5 1 1 3 1 5 3 3 2 1 2 4 6 5 5 4 2 3 2 1 1 1 1 2 3 4 5 5 4 3 4 3 4 9 10 9 9 11 16 20 23 25 25 24 23
8 11 15 16 13 9 6 5 7 12 16 11 3 2 3 1 1 3 3 2 0 2 3 1 0 2 2 2 1 4 3 2 2 2 2 1 1 1 3 1 3 8 12 6 2 2 1 3 3 4 1 1 2 2 1 3 5 4 3 3 3 3 3 1 1 2 2 2 4 4 4 3 5 6 5 8 10 10 9 7 9 16 21 20 20 20 20 20
5 6 10 11 9 10 7 6 10 16 13 5 3 2 2 1 1 3 5 3 1 2 2 0 1 2 1 1 1 1 2 2 2 2 1 1 0 0 2 1 2 8 10 5 3 2 2 3 2 5 3 0 0 1 3 4 0 2 3 3 2 1 1 0 1 2 3 2 2 3 4 6 6 4 6 9 9 8 10 8 10 17 17 15 16 16 17 18
6 5 8 9 6 4 4 8 13 13 6 3 3 2 1 2 1 3 5 4 3 4 3 2 2 2 1 1 1 1 1 3 3 2 0 1 1 1 2 1 2 5 6 4 3 2 2 2 2 3 4 1 2 3 2 4 4 4 3 2 2 1 3 2 3 3 1 3 4 2 4 9 6 4 6 8 7 9 13 13 13 16 16 16 16 15 15 15
8 5 7 11 8 1 6 11 10 6 4 4 3 3 3 3 2 2 5 5 3 3 4 3 2 1 1 1 1 1 2 2 2 1 1 1 1 2 1 3 4 3 1 2 2 1 1 2 1 2 3 3 4 4 2 1 2 3 2 3 4 4 5 4 2 4 1 1 2 2 3 8 5 5 6 7 10 13 15 15 16 16 15 15 14 13 13 14
14 8 6 8 5 3 12 10 7 5 6 3 4 5 4 3 2 2 4 5 3 2 4 2 1 2 1 1 1 2 2 1 0 0 1 2 1 2 1 3 4 2 2 0 1 1 1 2 2 3 4 3 5 6 5 4 4 2 1 2 4 3 4 5 5 3 1 3 2 1 3 8 5 4 6 8 12 13 13 15 16 16 15 14 13 12 10 10
21 18 15 9 1 3 8 6 2 4 4 3 4 5 4 4 4 2 2 3 3 1 2 1 1 2 0 1 2 1 1 1 0 1 2 2 1 2 1 3 3 1 1 1 1 1 1 1 2 2 4 5 6 6 6 4 1 1 3 2 3 4 6 4 2 3 0 5 5 3 5 8 5 2 4 5 7 10 14 16 16 16 16 14 12 10 9 10
14 16 21 19 12 11 11 11 10 6 3 4 4 2 3 5 4 3 2 2 3 3 2 1 0 1 1 1 2 1 1 1 1 1 1 1 1 3 2 0 2 2 1 1 1 1 1 2 3 4 1 2 3 3 3 3 2 2 2 3 4 6 7 4 2 3 2 5 5 5 6 8 6 2 3 5 5 7 14 16 15 16 15 13 11 11 11 14
5 5 10 17 22 25 19 15 16 10 4 5 4 2 3 2 1 2 3 2 3 3 3 1 1 0 2 2 1 1 1 1 1 1 1 1 2 3 3 2 0 1 1 1 1 2 2 0 2 5 6 6 6 7 5 1 3 5 4 5 5 5 6 6 4 3 5 3 4 7 10 13 14 9 6 7 6 7 12 15 14 14 14 13 13 13 15 16
5 2 1 5 12 17 15 11 11 7 5 5 3 1 2 1 0 2 2 1 2 2 2 2 1 1 1 1 1 1 2 1 2 1 2 2 2 2 3 4 3 3 2 2 1 2 3 2 3 4 6 8 7 9 7 2 5 9 7 6 7 7 7 7 6 7 4 2 5 9 9 10 15 14 10 9 7 7 11 15 15 13 13 14 14 14 16 17
5 3 4 5 3 4 5 5 8 9 6 5 3 1 2 2 1 1 0 1 1 1 1 2 3 2 2 2 2 0 1 1 1 1 2 2 1 2 1 3 4 5 4 2 1 3 4 3 4 3 5 9 8 10 9 5 7 8 9 9 8 8 10 11 12 10 6 4 11 11 8 10 15 16 14 13 12 12 15 16 14 11 11 12 13 14 16 19
12 9 7 8 6 5 5 6 10 12 8 5 4 2 3 3 1 1 1 1 1 1 1 1 2 1 1 2 3 1 2 0 1 3 2 2 1 0 1 2 3 5 4 2 0 2 3 3 4 3 5 9 9 10 9 6 6 7 9 11 9 10 13 14 14 11 9 11 16 15 15 17 17 16 15 17 20 19 17 12 9 9 11 12 14 16 19 22
11 9 11 15 12 9 8 5 7 8 5 4 4 1 1 4 3 2 1 2 0 3 2 2 3 4 2 1 2 2 4 4 4 4 3 3 1 2 3 2 2 2 1 1 1 1 2 2 2 2 3 8 8 7 5 5 5 7 11 11 8 9 11 11 11 9 8 11 15 14 14 16 16 13 12 16 18 15 12 11 9 9 12 14 16 19 22 24
13 15 20 20 9 4 4 3 3 5 3 4 2 1 0 2 4 3 2 2 2 1 0 2 2 3 1 1 1 4 5 4 4 4 5 5 4 4 4 3 3 3 0 0 0 1 1 2 2 4 3 7 6 4 4 4 5 8 13 14 10 8 7 7 7 7 8 9 10 9 9 11 11 9 9 11 12 12 13 14 13 13 15 16 19 22 24 25
21 19 17 14 6 3 3 2 3 5 1 1 1 2 1 2 3 4 2 1 2 2 0 2 1 2 1 1 3 5 4 5 5 4 4 5 4 5 5 4 4 5 3 3 1 1 2 2 1 2 1 6 6 4 4 5 6 7 9 9 8 7 6 6 6 8 9 7 5 7 9 10 10 9 10 11 10 12 14 13 13 16 19 20 22 23 24 24
Wind_Direction
52 50 46 43 43 40 38 36 33 32 35 41 61 63 51 59 72 50 16 3 354 352 1 355 352 359 4 30 110 121 117 121 119 95 82 25 1 339 328 323 318 298 235 182 176 179 177 207 229 208 215 224 241 242 243 229 183 135 102 105 248 241 257 264 4 68 106 114 56 48 61 72 36 49 81 73 53 52 52 51 61 65 70 91 108 119 127 130
59 58 56 54 51 48 43 38 30 22 18 14 11 3 351 347 321 324 347 350 346 355 6 358 354 357 9 58 131 136 131 130 121 68 44 19 355 344 331 321 309 293 230 194 193 193 190 203 225 227 221 220 235 223 212 200 166 157 127 122 229 195 54 46 76 67 69 106 82 60 61 58 33 49 77 74 42 43 44 31 52 75 78 88 97 106 110 102
61 59 59 57 52 48 41 35 28 18 10 357 341 318 305 292 283 297 308 323 331 347 9 6 359 358 6 58 144 148 140 129 108 2 11 5 344 334 330 322 305 297 269 224 223 225 224 223 177 275 233 229 235 212 188 170 177 189 147 145 242 171 68 43 65 72 67 95 93 72 67 57 45 60 78 83 54 43 40 24 40 68 80 84 86 93 101 96
57 55 52 45 38 33 27 24 19 15 10 1 348 328 314 296 287 287 289 306 315 329 351 355 357 357 3 51 154 164 159 127 2 346 347 345 335 320 319 320 307 304 291 262 261 244 250 250 230 324 283 269 255 218 189 177 185 181 158 195 242 140 80 37 54 69 71 84 93 83 75 65 55 58 65 74 63 38 36 39 50 64 73 81 84 89 98 98
48 43 37 28 24 23 22 24 19 15 5 356 353 344 336 323 308 292 291 296 302 327 338 345 352 358 11 58 138 173 176 144 346 341 333 334 331 315 312 313 310 307 298 282 273 213 296 290 242 322 296 279 271 216 194 190 180 167 189 207 304 92 95 43 56 69 73 77 79 69 69 81 67 56 59 69 69 52 48 56 68 73 79 84 86 90 95 92
38 28 24 19 22 28 33 33 23 12 357 347 340 331 330 321 312 299 294 290 296 321 324 334 343 2 25 84 107 140 161 148 333 338 332 339 340 328 313 306 315 305 285 224 165 93 23 14 319 284 256 258 251 231 228 204 184 184 255 51 60 85 103 69 66 74 79 76 72 73 81 89 81 64 64 69 69 71 68 73 78 79 86 91 93 92 89 86
32 24 23 22 31 40 38 32 21 11 2 357 349 337 327 308 297 285 275 274 274 301 340 345 355 19 41 110 106 102 91 65 355 351 346 344 342 336 326 310 318 304 280 207 134 47 360 4 332 277 245 253 271 273 261 194 165 147 302 53 78 88 94 86 80 83 84 82 82 85 83 79 83 79 69 68 68 73 76 80 83 85 89 94 92 86 84 84
37 33 32 35 43 43 36 28 22 18 16 16 10 360 347 327 311 282 260 207 176 121 12 30 47 35 47 121 117 98 47 18 353 354 350 346 336 334 338 317 314 313 323 94 39 11 343 17 17 350 294 200 354 336 22 92 103 89 36 65 91 91 93 93 89 89 87 87 85 79 76 82 89 83 69 68 70 74 80 81 82 88 89 87 83 80 83 83
50 46 45 48 48 40 32 28 25 22 19 19 15 8 358 347 335 313 303 178 140 88 66 76 63 47 56 92 110 81 18 360 353 358 352 351 346 339 342 332 341 342 24 79 35 349 329 4 19 23 358 328 4 6 45 60 40 68 68 71 98 98 93 94 91 91 88 86 83 75 70 82 91 81 65 66 76 78 83 78 76 82 80 76 76 77 79 81
58 54 54 51 42 36 30 26 24 21 19 17 15 13 6 357 353 359 38 115 108 80 88 86 70 55 53 68 91 65 7 6 7 7 2 4 2 351 354 5 4 14 43 83 33 327 336 342 331 350 334 337 8 12 33 65 86 85 76 76 98 100 93 97 97 95 91 85 84 80 61 58 70 87 74 69 77 83 80 73 71 74 73 71 74 75 75 77
57 54 50 42 35 31 25 22 21 19 19 17 18 20 18 17 18 35 66 93 100 100 110 103 82 63 57 72 80 58 15 20 18 17 15 6 5 357 6 20 5 28 76 122 20 342 344 328 315 328 328 13 3 0 45 68 73 74 75 71 87 93 98 103 107 106 97 92 91 87 70 55 62 81 91 84 77 79 79 72 71 73 72 72 73 73 73 74
56 49 41 36 31 25 20 17 16 16 18 20 25 29 36 45 47 60 76 97 113 118 122 116 93 71 63 64 62 44 25 24 19 19 18 4 359 1 11 18 359 18 67 169 326 348 354 344 3 32 18 10 342 4 57 34 36 73 82 82 83 80 88 94 115 129 117 134 112 88 66 46 49 81 93 92 82 76 78 75 74 75 75 77 77 78 78 78
51 43 33 29 22 16 14 12 14 15 19 28 35 39 49 61 59 61 73 101 115 122 132 126 103 78 66 60 49 35 28 23 17 15 16 5 354 3 22 28 18 30 35 19 17 5 26 33 49 61 32 15 346 10 328 329 36 113 88 105 110 61 25 22 103 140 121 163 163 72 54 49 45 84 93 93 86 79 79 79 79 80 81 83 84 85 85 86
42 34 23 20 15 12 9 10 15 16 24 35 39 44 58 71 73 77 85 104 114 115 127 126 91 55 71 70 42 31 28 20 16 10 9 13 7 10 22 32 39 47 47 48 55 47 67 66 48 54 36 24 356 326 334 3 78 117 64 86 95 79 14 4 37 128 93 95 125 88 90 100 64 82 91 94 87 85 87 87 86 86 87 89 90 91 91 90
28 23 14 13 11 10 9 12 16 19 30 35 37 54 73 84 91 92 92 102 114 115 120 116 73 55 70 68 35 29 27 18 15 7 6 19 25 20 21 42 59 66 65 65 70 63 74 74 58 52 35 27 19 354 12 26 45 41 55 13 12 86 154 17 17 35 105 69 63 89 107 88 87 88 92 94 88 93 98 99 97 95 95 96 95 96 96 94
15 15 9 7 7 10 12 11 15 24 36 40 53 77 88 93 96 97 99 102 110 121 121 101 85 81 62 41 23 27 27 21 12 5 10 25 31 35 42 66 75 78 70 60 61 61 65 72 64 51 39 31 21 34 59 35 3 6 71 73 37 98 157 58 20 25 93 78 29 69 129 117 93 93 94 97 97 102 104 105 106 105 106 104 102 101 101 100
1 3 2 5 4 8 10 10 19 33 50 59 73 93 95 90 91 98 101 98 101 109 102 85 126 127 60 30 15 11 19 21 9 7 15 31 39 47 56 72 80 79 66 54 48 58 64 59 65 47 38 32 2 41 70 39 351 334 33 60 60 117 119 137 47 34 62 82 57 72 105 112 104 99 100 102 106 109 110 112 113 114 114 112 111 109 106 103
344 348 351 359 1 2 5 12 23 46 80 83 86 93 89 78 80 100 103 106 106 100 87 55 53 138 53 20 11 0 12 19 10 11 18 32 43 45 49 54 57 54 61 57 44 57 69 49 57 58 24 21 8 42 79 104 247 302 4 27 347 34 67 80 113 60 68 78 87 88 94 110 112 106 109 113 115 115 117 120 121 120 120 120 118 115 112 107
334 337 339 353 359 358 2 15 25 53 112 111 99 93 88 82 79 81 82 84 81 80 70 27 37 119 57 10 14 9 19 22 16 22 29 37 45 38 36 31 37 53 74 68 35 44 65 45 45 46 2 5 7 28 82 210 203 221 230 122 44 32 63 90 78 105 98 82 75 94 106 121 121 121 123 125 124 120 124 127 126 127 127 126 124 120 118 112
339 341 339 354 2 358 3 15 22 39 111 146 134 114 101 85 72 65 68 72 70 72 73 46 49 82 57 18 20 21 33 30 26 32 32 32 60 51 45 45 56 62 73 89 41 43 65 63 38 33 347 353 360 353 328 281 334 83 76 67 70 62 38 114 129 137 108 88 53 93 105 115 116 122 131 133 132 127 131 133 134 139 139 139 138 134 128 123
357 357 355 3 5 1 4 14 20 31 62 152 173 166 177 95 93 88 76 75 75 72 67 57 55 58 44 25 23 24 33 34 34 38 35 39 65 58 50 60 65 53 58 91 87 55 63 65 360 337 331 11 9 346 6 53 50 54 86 77 58 53 343 42 131 183 105 90 96 110 101 97 99 87 110 127 132 138 145 146 148 151 151 154 154 151 149 145
9 9 7 6 5 4 6 16 24 27 44 82 195 173 145 125 114 109 97 90 84 71 59 50 50 47 42 43 29 24 32 31 27 31 33 48 64 63 59 63 64 48 30 63 83 46 49 46 330 326 346 49 25 9 44 70 67 56 60 81 52 18 336 6 87 106 54 92 149 149 108 104 121 100 98 114 117 134 152 160 162 161 162 166 166 165 169 171
9 7 5 1 2 4 4 23 31 34 52 39 228 153 139 130 113 104 101 99 90 66 48 38 37 34 33 33 18 25 41 37 15 16 21 36 55 59 64 67 67 63 41 43 85 78 67 347 321 343 38 61 37 26 45 58 63 66 55 80 61 354 37 332 23 51 32 76 144 145 112 118 152 118 118 139 140 136 150 164 169 172 173 174 176 176 179 185
5 360 356 354 357 357 360 32 36 37 53 64 123 143 143 134 119 110 100 94 97 59 43 34 26 25 24 18 10 30 50 43 23 15 15 22 38 51 65 77 75 66 63 73 79 79 74 324 328 18 57 54 49 36 40 54 50 48 76 104 131 323 153 230 241 91 47 48 128 128 87 188 188 178 200 176 166 170 177 173 168 173 175 173 177 179 186 198
4 354 349 351 353 355 4 56 30 36 64 92 132 149 149 143 134 122 99 87 79 9 17 21 18 19 14 10 14 82 69 45 30 16 12 22 30 37 55 72 80 70 90 82 71 70 29 346 1 47 46 33 55 48 40 69 45 352 38 123 142 215 196 214 234 120 76 17 203 144 62 291 200 184 208 188 172 189 196 192 184 182 183 185 189 194 205 218
8 356 352 355 355 357 353 266 4 20 102 128 153 164 162 160 154 137 87 74 32 335 355 5 4 13 12 9 13 135 90 32 31 21 18 31 33 42 43 26 69 121 137 92 71 86 3 0 30 56 40 37 46 43 34 61 58 356 281 141 70 296 201 143 114 114 120 235 216 161 125 277 226 206 207 186 187 203 199 197 196 197 202 205 209 214 220 228
9 2 359 358 355 354 341 296 353 4 151 146 163 175 179 177 171 167 27 51 12 328 356 357 357 14 18 18 26 106 125 336 18 22 21 41 43 60 76 14 40 72 169 107 62 36 352 6 26 37 38 46 38 18 347 41 69 297 279 324 332 306 281 192 109 123 202 163 115 174 178 238 259 238 194 175 188 213 212 209 203 201 204 207 210 215 217 223
11 9 4 358 356 353 350 357 353 5 119 163 170 183 190 186 185 188 65 77 351 334 355 349 13 22 24 37 42 69 55 357 19 16 21 54 50 58 65 28 76 43 15 100 113 283 313 14 25 39 38 32 24 295 290 28 76 257 277 317 303 264 232 176 105 123 226 94 41 277 206 131 277 284 145 174 200 229 226 217 209 204 205 207 210 215 218 227
16 13 8 2 1 1 6 26 17 129 102 138 151 176 184 179 181 103 67 117 325 342 354 354 9 5 9 36 40 44 43 30 36 18 30 60 61 65 70 44 73 68 39 74 131 215 196 54 45 68 49 352 288 274 267 119 20 286 296 342 341 72 87 99 108 102 43 91 238 286 23 83 282 264 161 202 229 235 228 216 211 208 208 212 216 219 224 234
12 12 14 9 8 10 16 41 52 123 107 124 133 142 151 152 144 64 42 206 343 349 339 5 3 345 3 26 21 18 30 30 29 30 37 51 58 64 76 65 63 71 50 55 87 169 216 7 29 60 35 319 272 312 312 157 3 331 335 15 30 33 38 56 78 82 57 18 252 265 323 106 297 259 195 199 220 217 209 207 213 211 212 216 219 222 227 236
8 8 10 9 12 22 43 89 70 118 121 129 132 130 129 118 75 85 71 265 325 350 340 4 355 349 14 45 9 359 11 15 18 33 34 36 46 43 46 53 40 44 49 35 41 18 6 9 358 32 25 7 351 18 4 10 23 15 16 35 30 359 11 21 0 42 70 289 248 262 347 94 233 262 219 212 236 214 189 192 201 206 212 216 220 224 229 236
10 7 10 12 15 20 33 107 115 142 142 138 139 139 130 57 29 94 312 316 326 357 348 316 331 343 7 39 23 349 0 11 14 34 43 38 47 39 44 48 355 38 40 11 44 16 3 348 325 326 24 22 39 38 356 356 21 25 29 44 56 14 8 15 342 6 90 249 253 328 6 317 236 253 225 213 233 224 200 202 203 205 211 216 220 226 231 237
18 23 27 24 25 36 52 73 109 139 148 146 146 141 88 73 53 248 297 343 220 303 343 277 321 339 15 38 9 341 16 18 10 22 33 73 64 37 55 34 7 107 69 34 111 15 337 303 343 357 6 17 51 80 10 331 355 6 16 57 92 79 33 345 310 335 303 267 288 335 1 269 280 278 228 205 213 211 203 213 217 214 217 221 224 228 233 240
39 44 43 43 51 66 72 74 93 118 139 147 144 75 62 82 177 296 332 301 282 334 359 340 330 348 32 56 336 333 37 8 21 34 10 39 48 3 360 9 10 41 71 60 90 56 74 313 343 23 324 351 34 98 155 184 319 312 215 106 112 130 131 183 229 252 274 277 301 338 10 219 255 292 262 198 193 198 203 217 221 219 222 226 228 230 234 242
52 51 52 56 59 70 73 78 95 112 139 141 97 59 77 106 229 104 310 270 306 338 324 342 34 35 10 7 340 1 60 330 75 71 25 28 55 1 343 345 358 20 62 70 10 102 104 251 270 237 317 30 35 310 154 122 357 282 112 85 75 177 146 155 207 205 229 294 298 315 242 220 219 292 303 181 170 194 213 223 222 222 224 223 227 232 239 247
57 55 56 59 59 61 61 70 104 128 155 132 76 54 112 158 211 156 241 270 334 326 322 350 41 59 354 337 354 352 8 4 48 67 39 59 91 6 332 305 353 27 55 99 109 31 91 253 262 332 349 86 125 320 8 94 185 316 45 77 233 183 130 119 279 266 61 15 278 268 273 291 329 308 291 308 241 226 222 225 225 228 232 229 234 241 246 249
59 57 54 54 54 54 59 72 106 145 139 103 76 78 157 151 197 181 323 320 270 300 53 23 18 47 359 345 337 332 348 5 14 49 48 81 64 5 339 314 358 33 22 47 133 147 125 268 277 185 223 251 205 6 11 30 102 105 85 226 224 63 83 100 332 338 19 332 272 277 269 283 319 295 292 299 264 249 235 228 227 231 235 235 241 249 253 254
64 61 51 45 44 44 65 80 109 138 108 81 73 100 108 64 307 241 330 343 271 50 66 76 184 109 61 50 311 317 354 13 353 35 63 42 4 27 24 317 330 14 360 2 76 181 120 30 290 218 167 242 243 59 7 356 31 98 152 166 94 80 10 24 42 340 341 293 285 289 277 263 234 234 251 240 236 239 237 228 228 236 237 239 247 256 258 255
65 61 46 36 40 45 60 102 132 115 90 75 83 99 93 110 17 21 11 5 130 86 65 74 339 51 64 113 228 304 355 42 3 35 86 94 351 48 67 332 299 347 354 13 114 268 86 103 286 285 150 146 22 40 251 300 354 41 67 26 45 136 169 191 186 170 203 270 292 293 289 269 239 214 199 223 226 222 225 220 221 231 236 242 252 260 261 256
77 69 42 30 53 63 73 129 106 83 74 82 133 113 101 132 51 34 39 33 61 82 80 302 34 53 28 72 139 294 359 48 40 56 80 38 72 352 25 44 288 329 346 29 100 332 17 114 241 303 333 173 237 306 192 187 247 37 45 12 348 25 93 162 238 171 145 169 257 290 286 267 255 198 188 222 223 206 205 203 218 230 239 249 256 262 265 264
88 78 31 24 48 59 96 95 68 58 65 89 90 80 84 117 125 44 37 34 54 69 92 118 90 108 129 39 343 279 7 28 29 70 104 358 92 197 310 10 325 323 348 32 48 3 20 109 196 290 323 285 238 262 208 173 166 143 140 179 181 120 86 76 296 291 87 148 191 226 284 276 262 180 194 214 199 197 204 207 224 240 248 254 257 264 269 273
81 74 15 20 20 344 109 76 37 32 76 75 72 77 88 114 115 32 25 29 48 57 67 85 82 77 106 132 277 338 59 47 1 44 133 182 151 192 256 359 341 328 33 37 355 2 90 101 110 270 268 238 261 301 3 96 121 120 157 183 152 129 120 127 222 266 320 270 218 159 257 276 262 178 190 197 191 206 217 221 234 247 253 257 262 270 273 279
69 62 28 27 20 101 104 76 14 34 70 81 98 80 69 91 81 37 27 30 28 38 49 45 49 70 96 208 89 52 74 93 271 149 161 181 190 215 210 20 357 3 79 79 309 14 46 85 62 298 292 300 303 321 354 20 56 83 250 193 150 152 140 148 177 182 191 255 247 125 244 272 277 208 194 198 203 219 232 235 240 248 255 260 262 267 273 282
72 61 51 44 308 169 108 101 92 76 81 95 82 63 60 68 62 49 21 22 25 51 65 37 27 59 10 140 95 122 155 104 193 186 157 159 181 214 196 39 26 52 79 202 216 21 326 143 80 12 341 343 340 340 340 344 27 194 242 203 152 124 109 113 124 100 215 234 189 163 241 262 274 239 215 219 219 231 240 242 246 251 256 259 257 260 275 292
77 62 52 56 83 100 99 121 130 120 130 108 80 75 83 55 42 53 42 39 52 61 83 150 246 16 343 58 67 31 104 108 250 223 113 109 202 205 198 65 43 76 87 199 204 130 156 172 123 105 96 286 292 289 274 275 273 247 207 183 166 138 136 144 111 102 233 234 171 175 247 269 275 254 253 257 243 245 250 250 252 254 255 256 254 264 285 298
86 70 47 54 72 81 86 106 113 113 144 124 81 65 80 54 11 59 44 44 48 48 73 114 217 329 8 38 67 331 322 23 42 98 120 218 249 222 201 199 241 96 102 99 195 154 110 230 181 157 176 198 216 236 236 231 270 260 240 210 199 180 156 133 114 167 201 195 190 220 246 276 286 279 266 258 243 245 254 252 249 247 247 250 257 273 289 298
82 72 46 55 65 72 76 86 95 105 146 142 112 81 93 92 335 30 25 44 52 54 73 54 53 93 21 44 69 283 268 17 44 97 158 213 246 254 213 202 221 232 171 118 216 130 88 308 251 178 211 225 227 249 262 273 251 249 249 230 209 197 165 148 188 214 173 119 262 239 223 254 278 283 282 275 260 249 253 249 244 243 250 257 266 278 290 298
91 97 92 99 93 67 65 73 89 91 94 110 115 119 111 87 47 29 334 21 61 101 86 20 21 72 158 158 115 251 276 6 344 227 186 217 270 359 298 232 218 211 179 133 204 121 111 253 242 176 253 258 251 263 267 253 244 245 243 236 218 197 180 188 221 222 170 203 256 257 248 254 271 282 285 285 283 276 269 260 250 254 268 272 276 288 297 304
110 111 83 84 105 121 115 111 104 91 77 81 82 68 114 109 105 224 251 25 2 332 68 95 307 310 159 126 108 153 259 305 264 261 202 184 230 101 294 269 222 208 191 130 109 123 119 250 233 176 277 278 263 264 256 226 236 254 249 239 218 202 199 205 228 229 205 227 250 264 274 272 270 274 278 285 287 280 274 270 257 265 282 287 293 301 306 310
119 125 114 105 99 100 107 108 105 94 59 52 75 46 130 126 167 219 28 65 109 309 30 113 271 273 210 120 106 184 227 192 194 238 198 163 221 202 196 224 189 193 202 92 29 83 126 267 251 117 316 293 278 273 251 215 238 267 269 260 233 220 221 219 233 236 223 241 254 262 273 274 273 272 271 279 285 280 278 283 282 288 298 303 305 307 309 312
121 127 125 115 95 57 88 91 102 101 40 18 90 190 237 137 177 168 60 49 152 239 206 159 259 301 296 296 210 208 225 199 194 223 198 186 211 199 198 208 160 148 27 125 356 27 110 287 341 59 354 285 278 296 298 302 305 282 276 272 251 232 225 216 225 221 210 234 259 269 275 272 276 287 280 276 279 277 280 289 296 302 307 307 307 309 311 310
121 126 126 114 93 13 55 50 50 83 65 321 132 162 163 162 173 140 85 338 129 107 196 175 109 3 354 262 238 229 242 238 233 238 219 216 226 213 223 233 189 179 177 149 145 314 122 111 2 52 295 273 284 315 324 343 341 290 264 248 226 222 228 233 246 236 218 218 243 260 262 267 286 304 298 289 285 277 278 286 295 302 307 309 309 309 308 305